Showing default

SATELIOT_4, 60537

Orbit data source: Space-Track

SATELIOT_4, 60537 is a payload satellite owned by Sateliot (ES) in SSO that was launched on Fri, 16 Aug 2024 UTC via an FALCON 9 launch vehicle from the Air Force Western Test Range (AFWTR). Payload-class satellites include a variety of spacecraft equipped with specific instruments for various scientific and technological missions. These include communications satellites like Starlink; space stations such as the ISS; scientific satellites like the Hubble; Earth observation satellites from companies like Planet Labs, Umbra, and HawkEye 360; GPS; miniature CubeSats for education and research; and military/defense satellites.

Loading next visibility...
Identifier
60537, 2024-149BX
Orbit
SSO
Country
Flag of ESES / SPN
Related business
Manufacturer
Endurosat
Mission
Operational Commercial Communications
Bus & Motor
CUBESAT 6U, Unknown motor
Mass
7.407 kg wet, 7.407 kg dry
Launch date (UTC)
2024-08-16 (1 year ago)
Launch vehicle
FALCON 9
Launch site
Air Force Western Test Range (AFWTR)
Object type
Payload
Rocket body
Debris
Shape & HBR
Box + 2 Pan, 0.2 m
Radar Cross Section
0.092 m², Medium (>0.1 m² and < 1m²)

Expand to show TLE details & history
Last TLE update: 18 hours ago

TLE from 18 hours ago
0 SATELIOT_4
1 60537U 24149BX  25340.50213470  .00005009  00000-0  45479-3 0  9993
2 60537  97.6955  53.5645 0001520  13.8589 346.2674 14.95717204 71161
Epoch: 2025-12-06T12:03Z
TLE epoch observation values (Epoch: 2025-12-06T12:03:04.438Z)
Latitude
0.00005°
Longitude
157.26705°
Altitude
582.169 km
Speed
7.57 km/s
True Right ascension
03h 34m 15s
True Declination
0° 00' 00"
Sunlit
Object was in full shadow at epoch
Visualization orbit readout
Latitude
Unknown
Longitude
Unknown
Altitude
Unknown
Speed
Unknown
Apparent Right ascension
Unknown
Apparent Declination
Unknown
Sunlit
N/A
Visualization observer readout
Local Sidereal Time
04:04:54
Azimuth
Unknown
Elevation
Unknown
Doppler factor
Unknown
Orbital elements
Apogee altitude
578.216 km
Perigee altitude
576.101 km
Semi-major axis
6,955.295 km
Eccentricity
0.00015
Inclination
97.6955°
RAAN
53.5645°
Arg. of periapsis
13.8589°
True anomaly
346.26326°
Mean anomaly
346.2674°
Eccentric anomaly
346.26533°
Mean motion
3.74171 °/min
Orbital period
96.21 mins
BSTAR
0.00045479
Loading maneuver chart data...
Computing Atmospheric mass density...
Loading historical data...
Loading historical data...
Loading historical data...
Loading historical data...
Loading historical data...
Loading historical data...
Loading historical data...

Documentation

Showing up to 5 results
|